| time (UTC) | temp F | wind direction | speed MPH | gust MPH | rain 1hr in | rain 24hr in | rain mn in | humidity % | barometer mb |
| 20260510094723 | 69 | 145 | 1.0 | 2.0 | 0.00 | 0.00 | 0.00 | 95 | 1013.0 |
| 20260510094223 | 69 | 223 | 1.0 | 2.0 | 0.00 | 0.00 | 0.00 | 94 | 1013.0 |
| 20260510093723 | 69 | 147 | 0.0 | 2.0 | 0.00 | 0.00 | 0.00 | 94 | 1013.0 |
| 20260510093223 | 69 | 91 | 1.0 | 3.0 | 0.00 | 0.00 | 0.00 | 94 | 1013.0 |
| 20260510092723 | 69 | 121 | 2.0 | 3.0 | 0.00 | 0.00 | 0.00 | 95 | 1013.0 |
| 20260510092224 | 69 | 133 | 3.0 | 3.0 | 0.00 | 0.00 | 0.00 | 95 | 1013.0 |
| 20260510091723 | 69 | 123 | 3.0 | 4.0 | 0.00 | 0.00 | 0.00 | 96 | 1013.0 |
| 20260510091223 | 69 | 130 | 2.0 | 3.0 | 0.00 | 0.00 | 0.00 | 96 | 1013.0 |
| 20260510090724 | 69 | 115 | 1.0 | 3.0 | 0.00 | 0.00 | 0.00 | 96 | 1013.0 |
| 20260510090224 | 69 | 99 | 1.0 | 2.0 | 0.00 | 0.00 | 0.00 | 96 | 1013.0 |
| 20260510085723 | 69 | 138 | 1.0 | 2.0 | 0.00 | 0.00 | 0.00 | 96 | 1013.0 |
| 20260510085223 | 70 | 135 | 2.0 | 2.0 | 0.00 | 0.00 | 0.00 | 96 | 1013.0 |
| 20260510084723 | 70 | 93 | 0.0 | 2.0 | 0.00 | 0.00 | 0.00 | 95 | 1012.0 |
| 20260510084223 | 70 | 99 | 1.0 | 2.0 | 0.00 | 0.00 | 0.00 | 96 | 1013.0 |
| 20260510083724 | 70 | 102 | 2.0 | 3.0 | 0.00 | 0.00 | 0.00 | 96 | 1013.0 |
| 20260510083223 | 70 | 141 | 2.0 | 3.0 | 0.00 | 0.00 | 0.00 | 96 | 1012.0 |
| 20260510082723 | 70 | 139 | 1.0 | 2.0 | 0.00 | 0.00 | 0.00 | 96 | 1012.0 |
| 20260510082223 | 70 | 131 | 1.0 | 2.0 | 0.00 | 0.00 | 0.00 | 97 | 1012.0 |
| 20260510081723 | 70 | 125 | 1.0 | 3.0 | 0.00 | 0.00 | 0.00 | 97 | 1013.0 |
| 20260510081223 | 70 | 102 | 1.0 | 2.0 | 0.00 | 0.00 | 0.00 | 97 | 1013.0 |
| 20260510080723 | 70 | 106 | 2.0 | 3.0 | 0.00 | 0.00 | 0.00 | 97 | 1013.0 |
| 20260510080223 | 70 | 111 | 2.0 | 2.0 | 0.00 | 0.00 | 0.00 | 97 | 1013.0 |
| 20260510075723 | 70 | 99 | 1.0 | 2.0 | 0.00 | 0.00 | 0.00 | 96 | 1013.0 |
| 20260510075223 | 70 | 124 | 1.0 | 2.0 | 0.00 | 0.00 | 0.00 | 96 | 1012.0 |
| 20260510074723 | 70 | 113 | 2.0 | 2.0 | 0.00 | 0.00 | 0.00 | 96 | 1013.0 |
| 20260510074223 | 70 | 129 | 1.0 | 2.0 | 0.00 | 0.00 | 0.00 | 95 | 1013.0 |
| 20260510073723 | 70 | 129 | 0.0 | 2.0 | 0.00 | 0.00 | 0.00 | 95 | 1013.0 |
| 20260510073223 | 71 | 101 | 0.0 | 2.0 | 0.00 | 0.00 | 0.00 | 95 | 1012.0 |
| 20260510072723 | 71 | 37 | 0.0 | 1.0 | 0.00 | 0.00 | 0.00 | 94 | 1012.0 |
| 20260510072223 | 71 | 124 | 2.0 | 2.0 | 0.00 | 0.00 | 0.00 | 93 | 1012.0 |
| 20260510071723 | 71 | 60 | 0.0 | 1.0 | 0.00 | 0.00 | 0.00 | 93 | 1012.0 |
| 20260510071223 | 72 | 44 | 0.0 | 1.0 | 0.00 | 0.00 | 0.00 | 92 | 1012.0 |
| 20260510070723 | 72 | 114 | 0.0 | 2.0 | 0.00 | 0.00 | 0.00 | 92 | 1012.0 |
| 20260510070223 | 72 | 126 | 2.0 | 3.0 | 0.00 | 0.00 | 0.00 | 91 | 1012.0 |
| 20260510065723 | 73 | 129 | 2.0 | 3.0 | 0.00 | 0.00 | 0.00 | 91 | 1012.0 |
| 20260510065224 | 73 | 101 | 1.0 | 3.0 | 0.00 | 0.00 | 0.00 | 91 | 1012.0 |
| 20260510064723 | 73 | 154 | 2.0 | 3.0 | 0.00 | 0.00 | 0.00 | 91 | 1012.0 |
| 20260510064223 | 73 | 122 | 3.0 | 4.0 | 0.00 | 0.00 | 0.00 | 91 | 1012.0 |
| 20260510063723 | 73 | 142 | 2.0 | 4.0 | 0.00 | 0.00 | 0.00 | 91 | 1012.0 |
| 20260510063223 | 73 | 150 | 2.0 | 2.0 | 0.00 | 0.00 | 0.00 | 91 | 1012.0 |
| 20260510062723 | 73 | 148 | 1.0 | 3.0 | 0.00 | 0.00 | 0.00 | 91 | 1012.0 |
| 20260510062223 | 73 | 143 | 2.0 | 3.0 | 0.00 | 0.00 | 0.00 | 91 | 1012.0 |
| 20260510061723 | 73 | 110 | 1.0 | 3.0 | 0.00 | 0.00 | 0.00 | 91 | 1012.0 |
| 20260510061223 | 72 | 146 | 0.0 | 2.0 | 0.00 | 0.00 | 0.00 | 91 | 1012.0 |
| 20260510060723 | 72 | 135 | 1.0 | 3.0 | 0.00 | 0.00 | 0.00 | 92 | 1012.0 |
| 20260510060223 | 72 | 105 | 1.0 | 2.0 | 0.00 | 0.00 | 0.00 | 92 | 1012.0 |
| 20260510055723 | 72 | 88 | 1.0 | 2.0 | 0.00 | 0.00 | 0.00 | 93 | 1012.0 |
| 20260510055223 | 72 | 89 | 0.0 | 1.0 | 0.00 | 0.00 | 0.00 | 93 | 1012.0 |
| 20260510054724 | 72 | 127 | 0.0 | 1.0 | 0.00 | 0.00 | 0.00 | 92 | 1012.0 |
| 20260510054223 | 72 | 142 | 0.0 | 2.0 | 0.00 | 0.00 | 0.00 | 92 | 1012.0 |
| 20260510053249 | 72 | 135 | 0.0 | 1.0 | 0.00 | 0.00 | 0.00 | 92 | 1012.0 |
| 20260510052724 | 72 | 135 | 0.0 | 1.0 | 0.00 | 0.00 | 0.00 | 92 | 1012.0 |
| 20260510052223 | 72 | 105 | 1.0 | 1.0 | 0.00 | 0.00 | 0.00 | 92 | 1012.0 |
| 20260510051724 | 73 | 88 | 1.0 | 2.0 | 0.00 | 0.00 | 0.00 | 93 | 1012.0 |
| 20260510051223 | 73 | 111 | 1.0 | 2.0 | 0.00 | 0.00 | 0.00 | 93 | 1012.0 |
| 20260510050723 | 73 | 125 | 1.0 | 2.0 | 0.00 | 0.00 | 0.00 | 92 | 1012.0 |
| 20260510050223 | 73 | 93 | 0.0 | 1.0 | 0.00 | 0.00 | 0.00 | 91 | 1012.0 |
| 20260510045723 | 74 | 99 | 1.0 | 2.0 | 0.00 | 0.00 | 0.10 | 90 | 1012.0 |
| 20260510045223 | 74 | 95 | 0.0 | 1.0 | 0.00 | 0.00 | 0.10 | 89 | 1012.0 |
| 20260510044723 | 74 | 96 | 2.0 | 2.0 | 0.00 | 0.00 | 0.10 | 88 | 1012.0 |
| 20260510044225 | 75 | 123 | 1.0 | 1.0 | 0.00 | 0.00 | 0.10 | 86 | 1012.0 |
| 20260510043723 | 75 | 106 | 1.0 | 2.0 | 0.00 | 0.00 | 0.10 | 85 | 1012.0 |
| 20260510043223 | 75 | 133 | 2.0 | 4.0 | 0.00 | 0.00 | 0.10 | 86 | 1012.0 |
| 20260510042723 | 74 | 63 | 0.0 | 1.0 | 0.00 | 0.00 | 0.10 | 88 | 1012.0 |
| 20260510042223 | 75 | 88 | 1.0 | 1.0 | 0.00 | 0.00 | 0.10 | 88 | 1012.0 |
| 20260510041723 | 75 | 96 | 1.0 | 1.0 | 0.00 | 0.00 | 0.10 | 87 | 1012.0 |
| 20260510041224 | 75 | 97 | 1.0 | 2.0 | 0.00 | 0.00 | 0.10 | 87 | 1012.0 |
| 20260510040724 | 74 | 107 | 2.0 | 3.0 | 0.00 | 0.00 | 0.10 | 89 | 1012.0 |
| 20260510040223 | 74 | 135 | 0.0 | 2.0 | 0.00 | 0.00 | 0.10 | 91 | 1012.0 |
| 20260510035723 | 74 | 156 | 1.0 | 1.0 | 0.00 | 0.00 | 0.10 | 90 | 1012.0 |
| 20260510035226 | 74 | 51 | 0.0 | 1.0 | 0.00 | 0.00 | 0.10 | 90 | 1012.0 |
| 20260510034723 | 74 | 126 | 0.0 | 1.0 | 0.00 | 0.00 | 0.10 | 90 | 1012.0 |
| 20260510034223 | 74 | 132 | 0.0 | 2.0 | 0.00 | 0.00 | 0.10 | 90 | 1012.0 |
| 20260510033723 | 74 | 123 | 1.0 | 1.0 | 0.00 | 0.00 | 0.10 | 90 | 1011.0 |
| 20260510033224 | 74 | 92 | 0.0 | 1.0 | 0.00 | 0.00 | 0.10 | 90 | 1011.0 |
| 20260510032723 | 74 | 115 | 0.0 | 1.0 | 0.00 | 0.00 | 0.10 | 90 | 1011.0 |
| 20260510032223 | 74 | 130 | 0.0 | 2.0 | 0.00 | 0.00 | 0.10 | 90 | 1011.0 |
| 20260510031723 | 74 | 110 | 1.0 | 2.0 | 0.00 | 0.00 | 0.10 | 90 | 1012.0 |
| 20260510031223 | 75 | 132 | 0.0 | 1.0 | 0.00 | 0.00 | 0.10 | 90 | 1011.0 |
| 20260510030723 | 75 | 105 | 1.0 | 2.0 | 0.00 | 0.00 | 0.10 | 90 | 1011.0 |
| 20260510030223 | 75 | 105 | 0.0 | 1.0 | 0.00 | 0.00 | 0.10 | 89 | 1011.0 |
| 20260510025723 | 75 | 79 | 0.0 | 2.0 | 0.00 | 0.00 | 0.10 | 89 | 1011.0 |
| 20260510025224 | 75 | 99 | 1.0 | 2.0 | 0.00 | 0.00 | 0.10 | 88 | 1011.0 |
| 20260510024724 | 75 | 122 | 1.0 | 2.0 | 0.00 | 0.00 | 0.10 | 88 | 1011.0 |
| 20260510024223 | 75 | 157 | 0.0 | 0.0 | 0.00 | 0.00 | 0.10 | 87 | 1011.0 |
| 20260510023723 | 76 | 164 | 0.0 | 0.0 | 0.00 | 0.00 | 0.10 | 87 | 1011.0 |
| 20260510023223 | 76 | 343 | 0.0 | 1.0 | 0.00 | 0.00 | 0.10 | 86 | 1010.0 |
| 20260510022723 | 76 | 44 | 0.0 | 1.0 | 0.00 | 0.00 | 0.10 | 86 | 1010.0 |
| 20260510022224 | 77 | 56 | 1.0 | 1.0 | 0.00 | 0.00 | 0.10 | 85 | 1010.0 |
| 20260510021724 | 77 | 128 | 0.0 | 1.0 | 0.00 | 0.00 | 0.10 | 85 | 1010.0 |
| 20260510021223 | 77 | 130 | 0.0 | 1.0 | 0.00 | 0.00 | 0.10 | 85 | 1010.0 |
| 20260510020723 | 77 | 83 | 1.0 | 2.0 | 0.00 | 0.00 | 0.10 | 85 | 1010.0 |
| 20260510020223 | 77 | 135 | 0.0 | 1.0 | 0.00 | 0.00 | 0.10 | 85 | 1010.0 |
| 20260510015723 | 77 | 129 | 0.0 | 0.0 | 0.00 | 0.00 | 0.10 | 84 | 1010.0 |
| 20260510015223 | 77 | 103 | 1.0 | 1.0 | 0.00 | 0.00 | 0.10 | 84 | 1010.0 |
| 20260510014723 | 78 | 82 | 0.0 | 1.0 | 0.00 | 0.00 | 0.10 | 84 | 1010.0 |
| 20260510014223 | 78 | 108 | 1.0 | 2.0 | 0.00 | 0.00 | 0.10 | 83 | 1010.0 |
| 20260510013723 | 78 | 108 | 1.0 | 1.0 | 0.00 | 0.00 | 0.10 | 83 | 1010.0 |
| 20260510013223 | 78 | 98 | 0.0 | 2.0 | 0.00 | 0.00 | 0.10 | 83 | 1010.0 |
| 20260510012723 | 78 | 104 | 0.0 | 2.0 | 0.00 | 0.00 | 0.10 | 82 | 1010.0 |
| 20260510012223 | 78 | 87 | 1.0 | 2.0 | 0.00 | 0.00 | 0.10 | 81 | 1010.0 |
| 20260510011726 | 79 | 52 | 0.0 | 2.0 | 0.00 | 0.00 | 0.10 | 80 | 1010.0 |
| 20260510011223 | 79 | 104 | 0.0 | 2.0 | 0.00 | 0.00 | 0.10 | 80 | 1010.0 |
| 20260510010723 | 79 | 67 | 1.0 | 2.0 | 0.00 | 0.00 | 0.10 | 79 | 1010.0 |
| 20260510010223 | 80 | 113 | 0.0 | 2.0 | 0.00 | 0.00 | 0.10 | 78 | 1010.0 |
| 20260510005723 | 80 | 81 | 1.0 | 2.0 | 0.00 | 0.00 | 0.10 | 77 | 1010.0 |
| 20260510005223 | 80 | 74 | 1.0 | 2.0 | 0.00 | 0.00 | 0.10 | 76 | 1010.0 |
| 20260510004724 | 80 | 105 | 2.0 | 2.0 | 0.00 | 0.00 | 0.10 | 75 | 1010.0 |
| 20260510004223 | 80 | 83 | 1.0 | 2.0 | 0.00 | 0.00 | 0.10 | 74 | 1009.0 |
| 20260510003723 | 80 | 75 | 0.0 | 1.0 | 0.00 | 0.00 | 0.10 | 76 | 1009.0 |
| 20260510003224 | 80 | 136 | 0.0 | 1.0 | 0.00 | 0.00 | 0.10 | 76 | 1009.0 |
| 20260510002724 | 79 | 104 | 1.0 | 1.0 | 0.00 | 0.00 | 0.10 | 75 | 1009.0 |
| 20260510002225 | 79 | 99 | 1.0 | 2.0 | 0.00 | 0.00 | 0.10 | 77 | 1009.0 |
| 20260510001723 | 78 | 87 | 1.0 | 2.0 | 0.00 | 0.00 | 0.10 | 74 | 1009.0 |
| 20260510001223 | 79 | 43 | 1.0 | 2.0 | 0.00 | 0.00 | 0.10 | 74 | 1009.0 |
| 20260510000723 | 79 | 80 | 0.0 | 2.0 | 0.00 | 0.00 | 0.10 | 76 | 1009.0 |
| 20260510000226 | 78 | 65 | 1.0 | 2.0 | 0.00 | 0.00 | 0.10 | 75 | 1009.0 |
| 20260509235723 | 78 | 108 | 1.0 | 2.0 | 0.00 | 0.00 | 0.10 | 77 | 1009.0 |
| 20260509235223 | 77 | 77 | 1.0 | 3.0 | 0.00 | 0.00 | 0.10 | 81 | 1009.0 |
| 20260509234723 | 77 | 91 | 1.0 | 2.0 | 0.00 | 0.00 | 0.10 | 79 | 1009.0 |
| 20260509234223 | 77 | 85 | 1.0 | 2.0 | 0.00 | 0.00 | 0.10 | 78 | 1009.0 |
| 20260509233723 | 77 | 81 | 2.0 | 3.0 | 0.00 | 0.00 | 0.10 | 79 | 1009.0 |
| 20260509233223 | 77 | 102 | 1.0 | 2.0 | 0.00 | 0.00 | 0.10 | 84 | 1009.0 |
| 20260509232723 | 77 | 5 | 0.0 | 2.0 | 0.00 | 0.00 | 0.10 | 85 | 1009.0 |
| 20260509232223 | 78 | 105 | 3.0 | 3.0 | 0.00 | 0.00 | 0.10 | 81 | 1009.0 |
| 20260509231723 | 78 | 22 | 0.0 | 2.0 | 0.00 | 0.00 | 0.10 | 76 | 1009.0 |
| 20260509231223 | 79 | 262 | 5.0 | 6.0 | 0.00 | 0.00 | 0.10 | 78 | 1009.0 |
| 20260509230723 | 77 | 355 | 0.0 | 2.0 | 0.00 | 0.00 | 0.10 | 78 | 1009.0 |
| 20260509230223 | 77 | 74 | 2.0 | 4.0 | 0.00 | 0.00 | 0.10 | 76 | 1009.0 |
| 20260509225723 | 76 | 164 | 5.0 | 5.0 | 0.07 | 0.00 | 0.10 | 76 | 1009.0 |
| 20260509225223 | 76 | 217 | 2.0 | 7.0 | 0.24 | 0.00 | 0.10 | 74 | 1009.0 |
| 20260509224724 | 76 | 271 | 8.0 | 13.0 | 0.21 | 0.00 | 0.08 | 69 | 1008.0 |
| 20260509224223 | 75 | 37 | 2.0 | 20.0 | 0.33 | 0.00 | 0.06 | 68 | 1009.0 |
| 20260509223723 | 76 | 302 | 6.0 | 10.0 | 0.28 | 0.00 | 0.05 | 74 | 1009.0 |
| 20260509223223 | 81 | 337 | 2.0 | 5.0 | 0.02 | 0.00 | 0.00 | 74 | 1009.0 |
| 20260509222723 | 85 | 83 | 4.0 | 8.0 | 0.00 | 0.00 | 0.00 | 65 | 1009.0 |
| 20260509222223 | 89 | 59 | 4.0 | 5.0 | 0.00 | 0.00 | 0.00 | 55 | 1009.0 |
| 20260509221724 | 91 | 67 | 1.0 | 3.0 | 0.00 | 0.00 | 0.00 | 55 | 1009.0 |
| 20260509221223 | 88 | 87 | 2.0 | 5.0 | 0.00 | 0.00 | 0.00 | 53 | 1009.0 |
| 20260509220723 | 89 | 184 | 6.0 | 8.0 | 0.00 | 0.00 | 0.00 | 53 | 1009.0 |
| 20260509220223 | 89 | 139 | 2.0 | 4.0 | 0.00 | 0.00 | 0.00 | 54 | 1009.0 |
| 20260509215723 | 89 | 185 | 2.0 | 6.0 | 0.00 | 0.00 | 0.00 | 52 | 1009.0 |
| 20260509215223 | 90 | 179 | 7.0 | 8.0 | 0.00 | 0.00 | 0.00 | 52 | 1009.0 |
| 20260509214723 | 89 | 214 | 3.0 | 8.0 | 0.00 | 0.00 | 0.00 | 53 | 1009.0 |
| 20260509214223 | 90 | 215 | 3.0 | 6.0 | 0.00 | 0.00 | 0.00 | 52 | 1009.0 |
| 20260509213723 | 90 | 222 | 9.0 | 10.0 | 0.00 | 0.00 | 0.00 | 51 | 1009.0 |
| 20260509213223 | 91 | 234 | 3.0 | 7.0 | 0.00 | 0.00 | 0.00 | 51 | 1009.0 |
| 20260509212724 | 91 | 204 | 3.0 | 9.0 | 0.00 | 0.00 | 0.00 | 50 | 1009.0 |
| 20260509212223 | 91 | 198 | 4.0 | 5.0 | 0.00 | 0.00 | 0.00 | 50 | 1009.0 |
| 20260509211723 | 91 | 174 | 7.0 | 8.0 | 0.00 | 0.00 | 0.00 | 52 | 1009.0 |
| 20260509211223 | 91 | 276 | 3.0 | 7.0 | 0.00 | 0.00 | 0.00 | 51 | 1009.0 |
| 20260509210724 | 88 | 223 | 2.0 | 5.0 | 0.00 | 0.00 | 0.00 | 54 | 1009.0 |
| 20260509210223 | 90 | 262 | 5.0 | 7.0 | 0.00 | 0.00 | 0.00 | 54 | 1009.0 |
| 20260509205723 | 90 | 233 | 6.0 | 9.0 | 0.00 | 0.00 | 0.00 | 54 | 1009.0 |
| 20260509205223 | 89 | 210 | 7.0 | 7.0 | 0.00 | 0.00 | 0.00 | 53 | 1010.0 |
| 20260509204723 | 89 | 250 | 4.0 | 5.0 | 0.00 | 0.00 | 0.00 | 53 | 1010.0 |
| 20260509204223 | 89 | 268 | 4.0 | 11.0 | 0.00 | 0.00 | 0.00 | 53 | 1010.0 |
| 20260509203724 | 89 | 310 | 5.0 | 5.0 | 0.00 | 0.00 | 0.00 | 53 | 1010.0 |
| 20260509203223 | 89 | 213 | 5.0 | 7.0 | 0.00 | 0.00 | 0.00 | 53 | 1010.0 |
| 20260509202723 | 89 | 221 | 7.0 | 7.0 | 0.00 | 0.00 | 0.00 | 53 | 1010.0 |
| 20260509202223 | 89 | 151 | 3.0 | 5.0 | 0.00 | 0.00 | 0.00 | 52 | 1010.0 |
| 20260509201724 | 89 | 337 | 3.0 | 6.0 | 0.00 | 0.00 | 0.00 | 53 | 1010.0 |
| 20260509201224 | 89 | 263 | 5.0 | 9.0 | 0.00 | 0.00 | 0.00 | 55 | 1010.0 |
| 20260509200723 | 89 | 248 | 8.0 | 8.0 | 0.00 | 0.00 | 0.00 | 51 | 1010.0 |
| 20260509200223 | 89 | 210 | 0.0 | 7.0 | 0.00 | 0.00 | 0.00 | 56 | 1010.0 |
| 20260509195723 | 88 | 218 | 3.0 | 3.0 | 0.00 | 0.00 | 0.00 | 55 | 1010.0 |
| 20260509195223 | 89 | 210 | 7.0 | 10.0 | 0.00 | 0.00 | 0.00 | 53 | 1010.0 |
| 20260509194724 | 89 | 254 | 7.0 | 10.0 | 0.00 | 0.00 | 0.00 | 55 | 1010.0 |
| 20260509194223 | 87 | 129 | 0.0 | 3.0 | 0.00 | 0.00 | 0.00 | 56 | 1011.0 |
| 20260509193723 | 88 | 176 | 3.0 | 8.0 | 0.00 | 0.00 | 0.00 | 58 | 1011.0 |
| 20260509193223 | 87 | 228 | 4.0 | 4.0 | 0.00 | 0.00 | 0.00 | 62 | 1011.0 |
| 20260509192728 | 87 | 256 | 4.0 | 6.0 | 0.00 | 0.00 | 0.00 | 60 | 1011.0 |
| 20260509192223 | 84 | 37 | 0.0 | 1.0 | 0.00 | 0.00 | 0.00 | 65 | 1011.0 |
| 20260509191723 | 86 | 165 | 0.0 | 2.0 | 0.00 | 0.00 | 0.00 | 65 | 1012.0 |
| 20260509191224 | 86 | 218 | 2.0 | 4.0 | 0.00 | 0.00 | 0.00 | 65 | 1012.0 |
| 20260509190723 | 86 | 215 | 2.0 | 4.0 | 0.00 | 0.00 | 0.00 | 64 | 1011.0 |
| 20260509190224 | 86 | 190 | 2.0 | 2.0 | 0.00 | 0.00 | 0.00 | 66 | 1012.0 |
| 20260509185723 | 86 | 65 | 2.0 | 5.0 | 0.00 | 0.00 | 0.00 | 66 | 1012.0 |
| 20260509185224 | 87 | 264 | 7.0 | 7.0 | 0.00 | 0.00 | 0.00 | 65 | 1012.0 |
| 20260509184723 | 85 | 144 | 4.0 | 4.0 | 0.00 | 0.00 | 0.00 | 67 | 1012.0 |
| 20260509184225 | 85 | 144 | 4.0 | 4.0 | 0.00 | 0.00 | 0.00 | 67 | 1012.0 |
| 20260509183723 | 85 | 175 | 4.0 | 5.0 | 0.00 | 0.00 | 0.00 | 69 | 1012.0 |
| 20260509183223 | 85 | 224 | 8.0 | 10.0 | 0.00 | 0.00 | 0.00 | 68 | 1012.0 |
| 20260509182724 | 85 | 240 | 3.0 | 6.0 | 0.00 | 0.00 | 0.00 | 68 | 1012.0 |
| 20260509182223 | 85 | 213 | 0.0 | 6.0 | 0.00 | 0.00 | 0.00 | 68 | 1012.0 |
| 20260509181723 | 85 | 272 | 0.0 | 3.0 | 0.00 | 0.00 | 0.00 | 67 | 1012.0 |
| 20260509181223 | 86 | 228 | 5.0 | 7.0 | 0.00 | 0.00 | 0.00 | 67 | 1012.0 |
| 20260509180724 | 84 | 241 | 5.0 | 6.0 | 0.00 | 0.00 | 0.00 | 71 | 1012.0 |
| 20260509180224 | 84 | 241 | 5.0 | 6.0 | 0.00 | 0.00 | 0.00 | 71 | 1012.0 |
| 20260509175723 | 84 | 241 | 5.0 | 6.0 | 0.00 | 0.00 | 0.00 | 71 | 1012.0 |
| 20260509175223 | 84 | 241 | 5.0 | 6.0 | 0.00 | 0.00 | 0.00 | 71 | 1012.0 |
| 20260509174723 | 84 | 246 | 2.0 | 4.0 | 0.00 | 0.00 | 0.00 | 71 | 1012.0 |
| 20260509174224 | 84 | 316 | 4.0 | 4.0 | 0.00 | 0.00 | 0.00 | 71 | 1012.0 |
| 20260509173724 | 84 | 210 | 2.0 | 7.0 | 0.00 | 0.00 | 0.00 | 71 | 1013.0 |
| 20260509173223 | 82 | 196 | 1.0 | 6.0 | 0.00 | 0.00 | 0.00 | 72 | 1013.0 |
| 20260509172723 | 84 | 298 | 1.0 | 4.0 | 0.00 | 0.00 | 0.00 | 69 | 1013.0 |
| 20260509172223 | 83 | 200 | 4.0 | 5.0 | 0.00 | 0.00 | 0.00 | 70 | 1013.0 |
| 20260509171725 | 83 | 273 | 5.0 | 7.0 | 0.00 | 0.00 | 0.00 | 70 | 1013.0 |
| 20260509171224 | 82 | 228 | 2.0 | 5.0 | 0.00 | 0.00 | 0.00 | 73 | 1013.0 |
| 20260509170723 | 82 | 273 | 3.0 | 7.0 | 0.00 | 0.00 | 0.00 | 69 | 1013.0 |
| 20260509170224 | 80 | 204 | 0.0 | 4.0 | 0.00 | 0.00 | 0.00 | 72 | 1013.0 |
| 20260509165723 | 81 | 273 | 4.0 | 9.0 | 0.00 | 0.00 | 0.00 | 73 | 1013.0 |
| 20260509165224 | 81 | 229 | 5.0 | 5.0 | 0.00 | 0.00 | 0.00 | 73 | 1013.0 |
| 20260509164723 | 82 | 280 | 3.0 | 8.0 | 0.00 | 0.00 | 0.00 | 72 | 1013.0 |
| 20260509164223 | 80 | 211 | 0.0 | 3.0 | 0.00 | 0.00 | 0.00 | 72 | 1013.0 |
| 20260509163724 | 80 | 230 | 2.0 | 7.0 | 0.00 | 0.00 | 0.00 | 75 | 1013.0 |
| 20260509163223 | 80 | 240 | 5.0 | 7.0 | 0.00 | 0.00 | 0.00 | 78 | 1013.0 |
| 20260509162723 | 79 | 221 | 0.0 | 4.0 | 0.00 | 0.00 | 0.00 | 77 | 1013.0 |
| 20260509162223 | 79 | 10 | 1.0 | 5.0 | 0.00 | 0.00 | 0.00 | 80 | 1013.0 |
| 20260509161724 | 79 | 203 | 3.0 | 6.0 | 0.00 | 0.00 | 0.00 | 78 | 1013.0 |
| 20260509161223 | 78 | 225 | 3.0 | 9.0 | 0.00 | 0.00 | 0.00 | 79 | 1013.0 |
| 20260509160723 | 78 | 290 | 4.0 | 10.0 | 0.00 | 0.00 | 0.00 | 84 | 1013.0 |
| 20260509160225 | 78 | 285 | 3.0 | 5.0 | 0.00 | 0.00 | 0.00 | 86 | 1013.0 |
| 20260509155723 | 76 | 269 | 2.0 | 6.0 | 0.00 | 0.00 | 0.00 | 89 | 1013.0 |
| 20260509155223 | 76 | 266 | 4.0 | 7.0 | 0.00 | 0.00 | 0.00 | 91 | 1013.0 |
| 20260509154723 | 76 | 240 | 5.0 | 6.0 | 0.00 | 0.00 | 0.00 | 92 | 1013.0 |
| 20260509154223 | 75 | 272 | 3.0 | 9.0 | 0.00 | 0.00 | 0.00 | 93 | 1013.0 |
| 20260509153723 | 76 | 268 | 4.0 | 9.0 | 0.00 | 0.00 | 0.00 | 93 | 1013.0 |
| 20260509153223 | 75 | 232 | 7.0 | 9.0 | 0.00 | 0.00 | 0.00 | 94 | 1013.0 |
| 20260509152723 | 75 | 287 | 6.0 | 8.0 | 0.00 | 0.00 | 0.00 | 97 | 1013.0 |
| 20260509152223 | 73 | 266 | 5.0 | 5.0 | 0.00 | 0.00 | 0.00 | 99 | 1013.0 |
| 20260509151724 | 73 | 248 | 5.0 | 5.0 | 0.00 | 0.00 | 0.00 | 99 | 1014.0 |
| 20260509151223 | 72 | 276 | 2.0 | 4.0 | 0.00 | 0.00 | 0.00 | 99 | 1013.0 |
| 20260509150723 | 71 | 274 | 1.0 | 2.0 | 0.00 | 0.00 | 0.00 | 99 | 1013.0 |
| 20260509150224 | 72 | 144 | 1.0 | 2.0 | 0.00 | 0.00 | 0.00 | 99 | 1014.0 |
| 20260509145724 | 72 | 260 | 1.0 | 2.0 | 0.00 | 0.00 | 0.00 | 99 | 1014.0 |
| 20260509145224 | 72 | 254 | 2.0 | 2.0 | 0.00 | 0.00 | 0.00 | 99 | 1014.0 |
| 20260509144723 | 72 | 94 | 0.0 | 2.0 | 0.00 | 0.00 | 0.00 | 99 | 1014.0 |
| 20260509144223 | 73 | 10 | 0.0 | 3.0 | 0.00 | 0.00 | 0.00 | 99 | 1014.0 |
| 20260509143725 | 72 | 33 | 0.0 | 2.0 | 0.00 | 0.00 | 0.00 | 99 | 1014.0 |
| 20260509143224 | 72 | 315 | 1.0 | 1.0 | 0.00 | 0.00 | 0.00 | 99 | 1014.0 |
| 20260509142723 | 72 | 151 | 1.0 | 2.0 | 0.00 | 0.00 | 0.00 | 99 | 1014.0 |
| 20260509142223 | 72 | 131 | 3.0 | 5.0 | 0.00 | 0.00 | 0.00 | 99 | 1014.0 |
| 20260509141724 | 72 | 121 | 2.0 | 3.0 | 0.00 | 0.00 | 0.00 | 99 | 1014.0 |
| 20260509141224 | 72 | 133 | 3.0 | 3.0 | 0.00 | 0.00 | 0.00 | 99 | 1014.0 |
| 20260509140724 | 72 | 118 | 2.0 | 3.0 | 0.00 | 0.00 | 0.00 | 99 | 1014.0 |
| 20260509140224 | 72 | 198 | 0.0 | 2.0 | 0.00 | 0.00 | 0.00 | 99 | 1014.0 |
| 20260509135723 | 72 | 166 | 1.0 | 3.0 | 0.00 | 0.00 | 0.00 | 99 | 1013.0 |
| 20260509135223 | 72 | 126 | 2.0 | 4.0 | 0.00 | 0.00 | 0.00 | 99 | 1013.0 |
| 20260509134724 | 72 | 205 | 0.0 | 2.0 | 0.00 | 0.00 | 0.00 | 99 | 1013.0 |
| 20260509134224 | 72 | 97 | 3.0 | 4.0 | 0.00 | 0.00 | 0.00 | 99 | 1013.0 |
| 20260509133724 | 72 | 112 | 3.0 | 5.0 | 0.00 | 0.00 | 0.00 | 99 | 1013.0 |
| 20260509133223 | 72 | 125 | 3.0 | 3.0 | 0.00 | 0.00 | 0.00 | 99 | 1013.0 |
| 20260509132724 | 72 | 112 | 1.0 | 4.0 | 0.00 | 0.00 | 0.00 | 99 | 1013.0 |
| 20260509132224 | 72 | 117 | 3.0 | 4.0 | 0.00 | 0.00 | 0.00 | 99 | 1013.0 |
| 20260509131723 | 72 | 98 | 2.0 | 2.0 | 0.00 | 0.00 | 0.00 | 99 | 1012.0 |
| 20260509131223 | 72 | 210 | 2.0 | 3.0 | 0.00 | 0.00 | 0.00 | 99 | 1013.0 |
| 20260509130723 | 72 | 152 | 0.0 | 2.0 | 0.00 | 0.00 | 0.00 | 99 | 1013.0 |
| 20260509130223 | 72 | 188 | 0.0 | 2.0 | 0.00 | 0.00 | 0.00 | 99 | 1013.0 |
| 20260509125723 | 72 | 80 | 0.0 | 2.0 | 0.00 | 0.00 | 0.00 | 99 | 1013.0 |
| 20260509125223 | 72 | 74 | 2.0 | 4.0 | 0.00 | 0.00 | 0.00 | 99 | 1013.0 |
| 20260509124723 | 72 | 63 | 2.0 | 3.0 | 0.00 | 0.00 | 0.00 | 99 | 1013.0 |
| 20260509124223 | 72 | 61 | 4.0 | 4.0 | 0.00 | 0.00 | 0.00 | 99 | 1013.0 |
| 20260509123724 | 72 | 65 | 3.0 | 3.0 | 0.00 | 0.00 | 0.00 | 99 | 1013.0 |
| 20260509123223 | 72 | 117 | 2.0 | 3.0 | 0.00 | 0.00 | 0.00 | 99 | 1013.0 |
| 20260509122723 | 72 | 110 | 3.0 | 5.0 | 0.00 | 0.00 | 0.00 | 99 | 1013.0 |
| 20260509122223 | 72 | 110 | 3.0 | 4.0 | 0.00 | 0.00 | 0.00 | 99 | 1013.0 |
| 20260509121725 | 72 | 101 | 1.0 | 3.0 | 0.00 | 0.00 | 0.00 | 99 | 1013.0 |
| 20260509121223 | 72 | 108 | 2.0 | 3.0 | 0.00 | 0.00 | 0.00 | 99 | 1013.0 |
| 20260509120723 | 72 | 45 | 3.0 | 3.0 | 0.00 | 0.00 | 0.00 | 99 | 1013.0 |
| 20260509120223 | 72 | 55 | 2.0 | 3.0 | 0.00 | 0.00 | 0.00 | 99 | 1013.0 |
| 20260509115724 | 72 | 328 | 2.0 | 3.0 | 0.00 | 0.00 | 0.00 | 99 | 1013.0 |
| 20260509115223 | 72 | 129 | 0.0 | 3.0 | 0.00 | 0.00 | 0.00 | 99 | 1013.0 |
| 20260509114723 | 72 | 50 | 2.0 | 3.0 | 0.00 | 0.00 | 0.00 | 99 | 1013.0 |
| 20260509114223 | 72 | 75 | 3.0 | 5.0 | 0.00 | 0.00 | 0.00 | 99 | 1013.0 |
| 20260509113723 | 72 | 61 | 2.0 | 3.0 | 0.00 | 0.00 | 0.00 | 99 | 1013.0 |
| 20260509113224 | 72 | 68 | 2.0 | 2.0 | 0.00 | 0.00 | 0.00 | 99 | 1013.0 |
| 20260509112723 | 72 | 97 | 0.0 | 3.0 | 0.00 | 0.00 | 0.00 | 99 | 1013.0 |
| 20260509112223 | 72 | 148 | 2.0 | 3.0 | 0.00 | 0.00 | 0.00 | 99 | 1012.0 |
| 20260509111723 | 72 | 7 | 1.0 | 2.0 | 0.00 | 0.00 | 0.00 | 99 | 1012.0 |
| 20260509111223 | 72 | 55 | 2.0 | 4.0 | 0.00 | 0.00 | 0.00 | 99 | 1012.0 |
| 20260509110723 | 72 | 59 | 1.0 | 2.0 | 0.00 | 0.00 | 0.00 | 99 | 1012.0 |
| 20260509110223 | 72 | 119 | 0.0 | 2.0 | 0.00 | 0.00 | 0.00 | 99 | 1012.0 |
| 20260509105726 | 72 | 92 | 1.0 | 2.0 | 0.00 | 0.00 | 0.00 | 99 | 1012.0 |
| 20260509105223 | 72 | 78 | 1.0 | 3.0 | 0.00 | 0.00 | 0.00 | 99 | 1012.0 |
| 20260509104724 | 72 | 51 | 3.0 | 5.0 | 0.00 | 0.00 | 0.00 | 99 | 1012.0 |
| 20260509104223 | 72 | 45 | 2.0 | 3.0 | 0.00 | 0.00 | 0.00 | 99 | 1012.0 |
| 20260509103723 | 72 | 79 | 0.0 | 3.0 | 0.00 | 0.00 | 0.00 | 99 | 1012.0 |
| 20260509103223 | 72 | 131 | 1.0 | 3.0 | 0.00 | 0.00 | 0.00 | 99 | 1012.0 |
| 20260509102723 | 72 | 132 | 2.0 | 3.0 | 0.00 | 0.00 | 0.00 | 99 | 1013.0 |
| 20260509102224 | 72 | 71 | 2.0 | 2.0 | 0.00 | 0.00 | 0.00 | 99 | 1012.0 |
| 20260509101726 | 72 | 92 | 1.0 | 2.0 | 0.00 | 0.00 | 0.00 | 99 | 1012.0 |
| 20260509101223 | 72 | 95 | 1.0 | 1.0 | 0.00 | 0.00 | 0.00 | 99 | 1012.0 |
| 20260509100723 | 72 | 89 | 1.0 | 2.0 | 0.00 | 0.00 | 0.00 | 99 | 1012.0 |
| 20260509100223 | 72 | 89 | 2.0 | 3.0 | 0.00 | 0.00 | 0.00 | 99 | 1012.0 |
| 20260509095723 | 72 | 79 | 2.0 | 2.0 | 0.00 | 0.00 | 0.00 | 99 | 1012.0 |
| 20260509095223 | 72 | 86 | 2.0 | 2.0 | 0.00 | 0.00 | 0.00 | 99 | 1012.0 |